Hourly Weather Owasso

Today, 1 December, Tuesday

Time Temperature Precipitation Wind Pressure Humidity
00:00 0°C° 0 mm 3 mps 748 mmHg 42%
01:00 0°C° 0 mm 3 mps 747 mmHg 44%
02:00 0°C° 0 mm 3 mps 747 mmHg 45%
03:00 -1°C° 0 mm 4 mps 747 mmHg 47%
04:00 -1°C° 0 mm 4 mps 746 mmHg 48%
05:00 -1°C° 0 mm 4 mps 746 mmHg 48%
06:00 -2°C° 0 mm 4 mps 746 mmHg 49%
07:00 -1°C° 0 mm 5 mps 746 mmHg 48%
08:00 0°C° 0 mm 5 mps 746 mmHg 46%
09:00 +1°C° 0 mm 6 mps 746 mmHg 44%
10:00 +3°C° 0 mm 6 mps 745 mmHg 41%
11:00 +5°C° 0 mm 6 mps 745 mmHg 37%
12:00 +8°C° 0 mm 6 mps 745 mmHg 34%
13:00 +9°C° 0 mm 6 mps 744 mmHg 34%
14:00 +10°C° 0 mm 6 mps 744 mmHg 34%
15:00 +10°C° 0 mm 6 mps 744 mmHg 34%
16:00 +9°C° 0 mm 5 mps 744 mmHg 39%
17:00 +8°C° 0 mm 5 mps 744 mmHg 44%
18:00 +6°C° 0 mm 4 mps 744 mmHg 49%
19:00 +6°C° 0 mm 4 mps 745 mmHg 52%
20:00 +5°C° 0 mm 4 mps 745 mmHg 54%
21:00 +4°C° 0 mm 4 mps 745 mmHg 57%
22:00 +4°C° 0 mm 4 mps 746 mmHg 58%
23:00 +3°C° 0 mm 4 mps 746 mmHg 59%

Tomorrow, 2 December, Wednesday

Time Temperature Precipitation Wind Pressure Humidity
00:00 +3°C° 0 mm 4 mps 746 mmHg 60%
01:00 +3°C° 0 mm 4 mps 746 mmHg 62%
02:00 +3°C° 0 mm 4 mps 746 mmHg 65%
03:00 +2°C° 0 mm 3 mps 746 mmHg 67%
04:00 +3°C° 0 mm 3 mps 746 mmHg 66%
05:00 +3°C° 0 mm 3 mps 747 mmHg 66%
06:00 +5°C° 0 mm 2 mps 747 mmHg 66%
07:00 +4°C° 0.1 mm 3 mps 747 mmHg 70%
08:00 +4°C° 0.1 mm 3 mps 747 mmHg 74%
09:00 +5°C° 0.1 mm 3 mps 747 mmHg 79%
10:00 +5°C° 1.9 mm 3 mps 747 mmHg 83%
11:00 +5°C° 1.9 mm 4 mps 747 mmHg 88%
12:00 +5°C° 1.9 mm 4 mps 747 mmHg 93%
13:00 +5°C° 1.6 mm 4 mps 747 mmHg 92%
14:00 +5°C° 1.6 mm 5 mps 746 mmHg 91%
15:00 +6°C° 1.6 mm 5 mps 746 mmHg 91%
16:00 +5°C° 0.2 mm 5 mps 746 mmHg 90%
17:00 +5°C° 0.2 mm 5 mps 746 mmHg 90%
18:00 +5°C° 0.2 mm 4 mps 746 mmHg 89%
19:00 +5°C° 0.2 mm 4 mps 746 mmHg 90%
20:00 +5°C° 0.2 mm 4 mps 746 mmHg 90%
21:00 +5°C° 0.2 mm 4 mps 746 mmHg 90%
22:00 +5°C° 0.1 mm 4 mps 746 mmHg 91%
23:00 +5°C° 0.1 mm 3 mps 746 mmHg 91%

Day after tomorrow, 3 December, Thursday

Time Temperature Precipitation Wind Pressure Humidity
00:00 +6°C° 0.1 mm 2 mps 746 mmHg 92%
01:00 +6°C° 0.1 mm 2 mps 746 mmHg 92%
02:00 +6°C° 0.1 mm 2 mps 746 mmHg 92%
03:00 +6°C° 0.1 mm 2 mps 746 mmHg 93%
04:00 +6°C° 0.1 mm 2 mps 746 mmHg 93%
05:00 +6°C° 0.1 mm 2 mps 746 mmHg 94%
06:00 +6°C° 0.1 mm 2 mps 746 mmHg 94%
07:00 +6°C° 0.3 mm 2 mps 746 mmHg 93%
08:00 +6°C° 0.3 mm 2 mps 747 mmHg 93%
09:00 +6°C° 0.3 mm 2 mps 747 mmHg 92%
10:00 +6°C° 0.2 mm 2 mps 747 mmHg 90%
11:00 +7°C° 0.2 mm 3 mps 747 mmHg 89%
12:00 +7°C° 0.2 mm 3 mps 747 mmHg 87%
13:00 +7°C° 0.2 mm 3 mps 747 mmHg 88%
14:00 +7°C° 0.2 mm 3 mps 747 mmHg 89%
15:00 +5°C° 0.2 mm 4 mps 747 mmHg 89%
16:00 +5°C° 0.2 mm 4 mps 747 mmHg 89%
17:00 +5°C° 0.2 mm 5 mps 747 mmHg 88%
18:00 +3°C° 0.2 mm 5 mps 747 mmHg 88%
19:00 +3°C° 0.1 mm 5 mps 747 mmHg 88%
20:00 +3°C° 0.1 mm 5 mps 747 mmHg 89%
21:00 +3°C° 0.1 mm 5 mps 747 mmHg 89%
22:00 +4°C° 0.1 mm 4 mps 747 mmHg 88%
23:00 +4°C° 0.1 mm 4 mps 747 mmHg 88%

4 December, Friday

Time Temperature Precipitation Wind Pressure Humidity
00:00 +4°C° 0.1 mm 4 mps 747 mmHg 87%
01:00 +4°C° 0.1 mm 4 mps 747 mmHg 87%
02:00 +4°C° 0.1 mm 4 mps 747 mmHg 87%
03:00 +4°C° 0.1 mm 3 mps 746 mmHg 87%
04:00 +3°C° 0 mm 3 mps 746 mmHg 89%
05:00 +2°C° 0 mm 3 mps 746 mmHg 91%
06:00 +2°C° 0 mm 3 mps 746 mmHg 92%
07:00 +2°C° 0 mm 3 mps 747 mmHg 89%
08:00 +3°C° 0 mm 3 mps 747 mmHg 85%
09:00 +3°C° 0 mm 3 mps 747 mmHg 82%
10:00 +4°C° 0 mm 3 mps 747 mmHg 77%
11:00 +5°C° 0 mm 3 mps 746 mmHg 73%
12:00 +5°C° 0 mm 3 mps 746 mmHg 68%
13:00 +7°C° 0 mm 3 mps 746 mmHg 65%
14:00 +7°C° 0 mm 3 mps 745 mmHg 62%
15:00 +8°C° 0 mm 3 mps 745 mmHg 59%
16:00 +7°C° 0 mm 3 mps 745 mmHg 61%
17:00 +6°C° 0 mm 2 mps 745 mmHg 64%
18:00 +5°C° 0 mm 2 mps 745 mmHg 67%
19:00 +5°C° 0 mm 2 mps 745 mmHg 69%
20:00 +3°C° 0 mm 3 mps 746 mmHg 72%
21:00 +2°C° 0 mm 3 mps 746 mmHg 74%
22:00 +2°C° 0 mm 3 mps 746 mmHg 77%
23:00 +1°C° 0 mm 3 mps 746 mmHg 79%

5 December, Saturday

Time Temperature Precipitation Wind Pressure Humidity
00:00 +2°C° 0 mm 2 mps 746 mmHg 81%
01:00 +1°C° 0 mm 3 mps 746 mmHg 81%
02:00 +1°C° 0 mm 3 mps 746 mmHg 81%
03:00 0°C° 0 mm 3 mps 746 mmHg 80%
04:00 0°C° 0 mm 3 mps 746 mmHg 79%
05:00 0°C° 0 mm 3 mps 746 mmHg 78%
06:00 0°C° 0 mm 3 mps 746 mmHg 77%
07:00 0°C° 0 mm 4 mps 746 mmHg 74%
08:00 +1°C° 0 mm 4 mps 747 mmHg 70%
09:00 +3°C° 0 mm 4 mps 747 mmHg 67%
10:00 +4°C° 0 mm 4 mps 747 mmHg 63%
11:00 +6°C° 0 mm 5 mps 747 mmHg 59%
12:00 +7°C° 0 mm 5 mps 747 mmHg 55%
13:00 +8°C° 0 mm 5 mps 746 mmHg 54%
14:00 +9°C° 0 mm 5 mps 746 mmHg 53%
15:00 +10°C° 0 mm 5 mps 746 mmHg 52%
16:00 +10°C° 0 mm 4 mps 746 mmHg 55%
17:00 +7°C° 0 mm 4 mps 746 mmHg 59%
18:00 +7°C° 0 mm 3 mps 746 mmHg 63%
19:00 +7°C° 0 mm 3 mps 746 mmHg 66%
20:00 +5°C° 0 mm 3 mps 746 mmHg 69%
21:00 +4°C° 0 mm 3 mps 746 mmHg 72%
22:00 +4°C° 0 mm 3 mps 746 mmHg 73%
23:00 +4°C° 0 mm 3 mps 746 mmHg 74%

6 December, Sunday

Time Temperature Precipitation Wind Pressure Humidity
00:00 +3°C° 0 mm 3 mps 746 mmHg 75%
01:00 +3°C° 0 mm 3 mps 746 mmHg 75%
02:00 +3°C° 0 mm 3 mps 746 mmHg 75%
03:00 +2°C° 0 mm 3 mps 746 mmHg 75%
04:00 +2°C° 0 mm 3 mps 746 mmHg 75%
05:00 +2°C° 0 mm 3 mps 746 mmHg 76%
06:00 +1°C° 0 mm 3 mps 746 mmHg 76%
07:00 +2°C° 0 mm 3 mps 746 mmHg 73%
08:00 +2°C° 0 mm 3 mps 746 mmHg 70%
09:00 +3°C° 0 mm 4 mps 747 mmHg 67%
10:00 +5°C° 0 mm 3 mps 746 mmHg 60%
11:00 +7°C° 0 mm 3 mps 746 mmHg 54%
12:00 +9°C° 0 mm 3 mps 746 mmHg 47%
13:00 +10°C° 0 mm 3 mps 746 mmHg 45%
14:00 +11°C° 0 mm 3 mps 746 mmHg 43%
15:00 +11°C° 0 mm 3 mps 745 mmHg 42%
16:00 +10°C° 0 mm 2 mps 746 mmHg 46%
17:00 +9°C° 0 mm 2 mps 746 mmHg 51%
18:00 +8°C° 0 mm 1 mps 746 mmHg 56%
19:00 +8°C° 0 mm 1 mps 746 mmHg 58%
20:00 +7°C° 0 mm 1 mps 746 mmHg 60%
21:00 +7°C° 0 mm 1 mps 746 mmHg 62%
22:00 +6°C° 0 mm 1 mps 746 mmHg 63%
23:00 +6°C° 0 mm 1 mps 746 mmHg 65%
Show more